Погода в Калуше

Украина / Ивано-Франковская область     49°01′34″N   24°22′06″E
темп.,
°C
ветер,
м/с
пор.,
м/с
влажн.,
%
обл.,
%
осадки,
мм/ч
давл.,
гПа
погр.,
м
27 сентября, пн
пн2700:00+13ююв118972 0.0 102213
03:00+13юв228876 0.0 102266
06:00+13юв249098 0.0 1021131
09:00+13вюв368538 0.0 1021351
12:00+17вюв566512 0.0 1021823
15:00+19вюв455630 0.0 10191264
18:00+17в47633 0.0 1019281
21:00+11вюв397417 0.0 1020185
28 сентября, вт
вт2800:00+10вюв411700 0.0 1021286
03:00+8вюв49750 0.0 1021272
06:00+7вюв38800 0.0 1021214
09:00+9вюв497442 0.0 1022359
12:00+14вюв685569 0.0 1022890
15:00+16юв67515 0.0 10221170
18:00+15вюв37605 0.0 1022320
21:00+9вюв36775 0.0 1024100
29 сентября, ср
ср2900:00+7вюв38795 0.0 1026149
03:00+6вюв38836 0.0 1026170
06:00+5вюв398829 0.0 1026210
09:00+8вюв5127629 0.0 1026368
12:00+14юв710538 0.0 1026894
15:00+17вюв784541 0.0 10241204
18:00+15вюв5105158 0.0 1024525
21:00+12юв513545 0.0 1025425
30 сентября, чт
чт3000:00+9юв49685 0.0 1026238
03:00+7юв36786 0.0 1027113
06:00+6юв3582100 0.0 102790
09:00+8вюв3575100 0.0 1027152
12:00+14вюв4458100 0.0 1027429
15:00+17вюв3350100 0.0 1026769
18:00+15сз1161100 0.0 102614
21:00+12сз3575100 0.0 1028180
1 октября, пт
пт100:00+9зсз2295100 0.0 102932
03:00+10зсз1297100 0.0 102860
06:00+10ссз0197100 0.0 102824
09:00+11вюв119397 0.0 1028208
12:00+14вюв2274100 0.0 1028599
15:00+17в225929 0.0 10271030
18:00+16вюв22627 0.0 102629
21:00+10юв24645 0.0 102756